www.pogodaiklimat.ru

Погода и климат >> Архив погоды >> Норвегия >> Tafjord


ПОГОДА в Tafjord

  • Прогноз погоды в Tafjord
  • Монитор погоды в Tafjord
  • Климат города

АРХИВ ПОГОДЫ в Tafjord

Время (UTC), дата Ветер
(напр.,м/с)
 
Видим.   Явления Облачность Т
(С)
Тd
(С)
f
(%)
Тe
(С)
Тes
(С)
Комфортность P
(гПа)
Po
(гПа)
Тmin
(С)
Tmax
(С)
R
(мм)
R24
(мм)
S
(см)
11 9.10 С 1
{3}
н/о н/о +8.2 +7.3 94 +7 +7 999.4 997.3 2
10 9.10 штиль 0
{1}
н/о н/о +7.9 +7.2 95 +7 +7 999.6 997.5 1
12 9.10 штиль 0
{3}
н/о н/о +8.2 +7.5 95 +7 +7 999.1 997.0 2
13 9.10 С 2
{4}
н/о н/о +8.3 +7.6 95 +6 +6 999.0 996.9 2
14 9.10
{2}
н/о н/о +8.4 +7.7 95 999.3 997.2 2
15 9.10 СЗ 1
{2}
н/о н/о +8.4 +7.8 96 +7 +7 999.0 996.9 2
17 9.10 С 1
{2}
н/о н/о +8.3 +7.7 96 +7 +7 1001.0 998.9 2
16 9.10 штиль 0
{3}
н/о н/о +8.3 +7.7 96 +7 +7 1000.1 998.0 2
18 9.10 Ю 1
{4}
н/о н/о +8.3 +7.7 96 +7 +7 1002.4 1000.3 +7.0 +8.5 2
19 9.10 штиль 0
{1}
н/о н/о +8.2 +7.6 96 +7 +7 1003.2 1001.1 3
20 9.10 ЮВ 2
{3}
н/о н/о +8.2 +7.8 97 +6 +6 1005.1 1003.0 3
21 9.10 н/о +8.2 +7.7 97 +11 +11 1006.2 1004.1
23 9.10 н/о
22 9.10 СВ 1
{4}
н/о н/о +8.4 +8.0 97 +7 +7 1007.2 1005.1 1
00 10.10 СЗ 1
{4}
н/о н/о +8.0 +7.6 97 +7 +7 1009.5 1007.4
01 10.10 ЮВ 1
{2}
н/о н/о +8.1 +7.7 97 +7 +7 1010.5 1008.4
02 10.10 СВ 1
{3}
н/о н/о +8.1 +7.7 97 +7 +7 1011.2 1009.1
03 10.10 Ю 1
{3}
н/о н/о +7.8 +7.2 96 +7 +7 1011.7 1009.6
05 10.10 ЮЗ 1
{4}
н/о н/о +7.2 +6.8 97 +6 +6 1012.8 1010.7
04 10.10 С 1 н/о н/о +7.3 +6.9 97 +6 +6 1012.0 1009.9
06 10.10 Ю 1
{4}
н/о н/о +7.2 +6.8 97 +6 +6 1013.4 1011.3 +7.0 +8.5
07 10.10 ЮВ 1
{2}
н/о н/о +7.6 +7.2 97 +7 +7 1014.2 1012.1
08 10.10 С 1
{3}
н/о н/о +8.1 +7.7 97 +7 +7 1014.5 1012.4
09 10.10 С 1
{2}
н/о н/о +8.4 +7.8 96 +7 +7 1014.7 1012.6
11 10.10 СЗ 1
{2}
н/о н/о +10.1 +8.5 90 +10 +10 1015.1 1013.0
10 10.10 ЮЗ 1
{3}
н/о н/о +9.3 +8.7 96 +9 +9 1014.8 1012.7
12 10.10 С 1
{3}
н/о н/о +11.0 +9.1 88 +11 +11 1015.3 1013.2
13 10.10 З 1
{3}
н/о н/о +11.8 +9.2 84 +12 +12 1015.0 1012.9
14 10.10 СЗ 1
{4}
н/о н/о +11.9 +8.9 82 +12 +12 1015.4 1013.3
15 10.10 СЗ 1
{3}
н/о н/о +11.7 +8.9 83 +12 +12 1015.7 1013.6
17 10.10 ЮВ 1
{2}
н/о н/о +9.6 +8.5 93 +9 +9 1016.5 1014.4
16 10.10 С 1
{2}
н/о н/о +11.1 +9.2 88 +11 +11 1015.9 1013.8
18 10.10 Ю 4
{8}
н/о н/о +15.2 +7.5 60 +14 +14 1016.8 1014.7 +7.2 +15.2
19 10.10 Ю 5
{10}
н/о н/о +17.1 +5.4 46 +16 +16 1017.0 1014.9
20 10.10 ЮВ 1
{9}
н/о н/о +12.2 +6.7 69 +12 +12 1017.3 1015.2
21 10.10 С 1
{5}
н/о н/о +10.8 +7.1 78 +11 +11 1018.5 1016.4
23 10.10 Ю 1
{3}
н/о н/о +8.1 +7.0 93 +7 +7 1019.3 1017.2
22 10.10 штиль 0
{3}
н/о н/о +8.5 +7.3 92 +8 +8 1019.1 1017.0
00 11.10 ЮВ 4
{10}
н/о н/о +16.1 +6.3 52 +15 +15 1019.3 1017.2
01 11.10 В 2
{9}
н/о н/о +13.8 +6.0 59 +13 +13 1019.7 1017.6
02 11.10 Ю 4
{11}
н/о н/о +17.3 +4.3 42 +17 +17 1019.5 1017.4
03 11.10 Ю 5
{10}
н/о н/о +17.2 +4.2 42 +17 +17 1019.4 1017.3
05 11.10 ЮВ 6
{13}
н/о н/о +17.2 +3.9 41 +16 +16 1018.6 1016.5
04 11.10 Ю 7
{13}
н/о н/о +17.2 +4.2 42 +16 +16 1019.1 1017.0
06 11.10 ЮВ 7
{13}
н/о н/о +17.1 +3.4 40 +16 +16 1018.6 1016.5 +7.7 +18.0
07 11.10 Ю 9
{16}
н/о н/о +17.2 +3.2 39 +16 +16 1017.9 1015.8
08 11.10 ЮВ 11
{18}
н/о н/о +17.2 +3.2 39 +16 +16 1017.7 1015.6
09 11.10 ЮВ 12
{18}
н/о н/о +17.1 +3.4 40 +15 +15 1017.0 1014.9
11 11.10 Ю 10
{17}
н/о н/о +19.1 +1.2 30 +18 +18 1015.8 1013.7
10 11.10 ЮВ 12
{18}
н/о н/о +18.0 +2.4 35 +17 +17 1016.3 1014.2
12 11.10 ЮВ 8
{18}
н/о н/о +20.0 +0.5 27 +20 +20 1015.5 1013.4
13 11.10 Ю 6
{14}
н/о н/о +19.9 +1.4 29 +20 +20 1015.1 1013.0
14 11.10 Ю 4
{13}
н/о н/о +19.8 +1.8 30 +20 +20 1014.3 1012.3
15 11.10 Ю 3
{10}
н/о н/о +19.1 +2.5 33 +20 +20 1013.8 1011.7
17 11.10 Ю 7
{14}
н/о н/о +20.6 +1.0 27 +20 +20 1012.2 1010.2
16 11.10 ЮВ 5
{11}
н/о н/о +19.7 +2.1 31 +20 +20 1012.8 1010.8
18 11.10 ЮВ 7
{16}
н/о н/о +19.6 +1.6 30 +19 +19 1012.9 1010.9 +16.4 +20.8
19 11.10 ЮВ 8
{15}
н/о н/о +19.4 +1.0 29 +19 +19 1012.6 1010.6
20 11.10 ЮЗ 4
{14}
н/о н/о +19.2 +0.8 29 +19 +19 1013.0 1011.0
21 11.10 Ю 6
{11}
н/о н/о +18.7 +1.3 31 +18 +18 1013.6 1011.5
23 11.10 Ю 8
{13}
н/о н/о +18.5 +2.0 33 +18 +18 1014.2 1012.1
22 11.10 ЮВ 6
{13}
н/о н/о +18.2 +2.1 34 +18 +18 1014.2 1012.1
00 12.10 н/о +17.9 1013.9 1011.8
01 12.10 Ю 2
{10}
н/о н/о +14.5 +4.5 51 +14 +14 1013.9 1011.8
02 12.10 Ю 6
{10}
н/о н/о +18.1 +2.8 36 +18 +18 1013.8 1011.7
03 12.10 Ю 5
{12}
н/о н/о +17.4 +3.3 39 +17 +17 1013.7 1011.6
05 12.10 Ю 4
{11}
н/о н/о +15.9 +4.3 46 +15 +15 1013.0 1010.9
04 12.10 Ю 5
{10}
н/о н/о +17.1 +3.4 40 +16 +16 1013.6 1011.5
06 12.10 ЮВ 6
{12}
н/о н/о +17.1 +3.8 41 +16 +16 1012.9 1010.8 +14.5 +19.9
07 12.10 ЮВ 9
{16}
н/о н/о +16.9 +4.3 43 +15 +15 1012.8 1010.7
08 12.10 ЮВ 5
{15}
н/о н/о +17.6 +3.9 40 +17 +17 1012.1 1010.0
09 12.10 Ю 4
{10}
н/о н/о +18.4 +3.9 38 +18 +18 1011.7 1009.6
11 12.10 Ю 5
{11}
н/о н/о +19.0 +4.8 39 +19 +19 1010.9 1008.9
10 12.10 Ю 5
{10}
н/о н/о +19.5 +4.1 36 +20 +20 1011.5 1009.5
12 12.10 Ю 6
{16}
н/о н/о +19.3 +5.7 41 +19 +19 1009.6 1007.6
13 12.10 Ю 5
{13}
н/о н/о +19.6 +6.0 41 +20 +20 1008.5 1006.5
14 12.10 Ю 6
{11}
н/о н/о +19.8 +5.8 40 +20 +20 1008.1 1006.1
15 12.10 ЮВ 2
{10}
н/о н/о +18.8 +7.0 46 +20 +20 1007.9 1005.9 0.1
17 12.10 Ю 4
{14}
н/о н/о +19.8 +4.7 37 +20 +20 1006.4 1004.4
16 12.10 Ю 7
{14}
н/о н/о +20.2 +5.1 37 +20 +20 1006.7 1004.7
18 12.10 Ю 3
{14}
н/о н/о +19.6 +4.5 37 +20 +20 1005.4 1003.4 +16.0 +20.4
19 12.10 н/о
20 12.10 Ю 8
{17}
н/о н/о +19.4 +4.0 36 +19 +19 1002.6 1000.6
21 12.10 Ю 13
{23}
н/о н/о +19.8 +5.1 38 +19 +19 1001.1 999.1
23 12.10 ЮВ 12
{23}
н/о н/о +20.7 +5.1 36 +21 +21 комфорт 1001.2 999.2 0.2
22 12.10 Ю 12
{21}
н/о н/о +20.9 +4.5 34 +21 +21 комфорт 1000.8 998.8
00 13.10 Ю 9
{23}
н/о н/о +20.1 +5.7 39 +20 +20 1001.1 999.1
01 13.10 ЮВ 11
{18}
н/о н/о +20.4 +6.0 39 +20 +20 1000.5 998.5 0.4
02 13.10 Ю 10
{21}
н/о н/о +19.7 +7.1 44 +20 +20 1000.5 998.5 0.4
03 13.10 ЮВ 8
{20}
н/о н/о +19.5 +7.9 47 +20 +20 1000.2 998.2 0.4
05 13.10 Ю 4
{9}
н/о н/о +15.2 +11.2 77 +14 +14 1001.0 998.9 2
04 13.10 ЮЗ 5 н/о н/о +15.9 +11.1 73 +15 +15 1001.1 999.1 1
06 13.10 Ю 3
{21}
н/о н/о +14.9 +12.0 83 +14 +14 1002.1 1000.0 +14.6 +20.9 1
07 13.10 С 2
{6}
н/о н/о +14.2 +12.1 87 +14 +14 1004.2 1002.1 1
08 13.10 СВ 1
{3}
н/о н/о +13.4 +12.6 95 +13 +13 1004.7 1002.6 1
09 13.10 штиль 0
{4}
н/о н/о +13.5 +12.6 94 +13 +13 1005.3 1003.2 0.6
11 13.10 С 1
{2}
н/о н/о +13.4 +12.1 92 +14 +14 1006.4 1004.3
10 13.10 ЮВ 1
{4}
н/о н/о +13.9 +12.8 93 +14 +14 1006.2 1004.1 0.1
12 13.10 СВ 1
{6}
н/о н/о +13.5 +12.2 92 +14 +14 1006.9 1004.8
13 13.10 штиль 0
{3}
н/о н/о +13.6 +12.3 92 +13 +13 1006.6 1004.5
14 13.10 С 1
{2}
н/о н/о +13.2 +11.9 92 +13 +13 1005.7 1003.6
15 13.10 С 1
{3}
н/о н/о +12.6 +11.5 93 +13 +13 1006.1 1004.0 0.4
17 13.10 н/о
16 13.10 штиль 0
{2}
н/о н/о +12.1 +11.3 95 +11 +11 1004.5 1002.4 0.8
18 13.10 С 3
{5}
н/о н/о +11.7 +10.6 93 +10 +10 1003.5 1001.4 +11.3 +14.9 0.3
19 13.10 СВ 1
{3}
н/о н/о +11.4 +10.6 95 +11 +11 1002.7 1000.6 0.9
20 13.10 СЗ 2
{4}
н/о н/о +10.9 +10.3 96 +9 +9 1002.3 1000.2 0.1
21 13.10 СЗ 1
{2}
н/о н/о +11.0 +10.4 96 +11 +11 1001.6 999.5 0.7
23 13.10 С 1
{4}
н/о н/о +11.0 +10.2 95 +11 +11 1001.8 999.7 0.2
22 13.10 С 1
{3}
н/о н/о +10.9 +10.3 96 +10 +10 1002.5 1000.4 0.7
00 14.10 С 1
{4}
н/о н/о +10.9 +10.3 96 +10 +10 999.5 997.4 0.1
01 14.10 Ю 9
{19}
н/о н/о +25.1 +8.2 34 +25 +25 комфорт 998.1 996.1
02 14.10 Ю 11
{19}
н/о н/о +24.5 +8.9 37 +25 +25 комфорт 997.7 995.7
03 14.10 ЮВ 9
{21}
н/о н/о +23.8 +10.1 42 +25 +25 комфорт 997.9 995.9
05 14.10 Ю 9
{17}
н/о н/о +24.7 +9.1 37 +25 +25 комфорт 996.8 994.8
04 14.10 Ю 8
{18}
н/о н/о +23.4 +10.1 43 +25 +25 комфорт 997.5 995.5
06 14.10 ЮВ 8
{21}
н/о н/о +24.7 +8.6 36 +25 +25 комфорт 996.6 994.6 +10.7 +25.4
07 14.10 н/о
08 14.10 ЮВ 10
{22}
н/о н/о +24.3 +9.1 38 +25 +25 комфорт 996.8 994.8 0.2
09 14.10 Ю 8
{15}
н/о н/о +24.3 +9.1 38 +25 +25 комфорт 997.4 995.4
11 14.10 Ю 10
{16}
н/о н/о +24.7 +8.6 36 +25 +25 комфорт 996.8 994.8
10 14.10 Ю 9
{15}
н/о н/о +24.5 +8.9 37 +25 +25 комфорт 997.0 995.0
12 14.10 Ю 9
{22}
н/о н/о +24.3 +8.7 37 +25 +25 комфорт 997.1 995.1
13 14.10 СВ 3
{18}
н/о н/о +20.6 +11.5 56 +23 +23 комфорт 998.6 996.6 0.1
14 14.10 С 4
{9}
н/о н/о +17.3 +12.0 71 +17 +17 1000.7 998.7 0.3
15 14.10 В 4
{10}
н/о н/о +17.3 +8.5 56 +17 +17 1002.4 1000.4 0.1
17 14.10 СВ 5
{9}
н/о н/о +12.0 +8.5 79 +10 +10 1004.7 1002.6 1
16 14.10 С 5
{8}
н/о н/о +14.3 +9.1 71 +13 +13 1003.6 1001.5 0.1
18 14.10 СВ 6
{18}
н/о н/о +10.6 +7.8 83 +7 +7 1005.8 1003.7 +10.6 +25.5 1
19 14.10 СВ 5
{8}
н/о н/о +10.0 +7.4 84 +7 +7 1006.4 1004.3 2
20 14.10 СВ 4
{8}
н/о н/о +9.6 +6.5 81 +7 +7 1007.8 1005.7 2
21 14.10 С 3
{6}
н/о н/о +8.6 +5.7 82 +6 +6 1009.7 1007.6 3
23 14.10 СВ 4
{6}
н/о н/о +6.9 +4.6 85 +3 +3 1011.4 1009.3 2
22 14.10 СВ 3
{5}
н/о н/о +7.5 +5.5 87 +5 +5 1010.9 1008.8 3
00 15.10 С 2
{8}
н/о н/о +6.7 +4.9 88 +4 +4 1012.3 1010.2 0.5
01 15.10 штиль 0
{2}
н/о н/о +6.3 +5.4 94 +5 +5 1012.6 1010.5
02 15.10 штиль 0
{1}
н/о н/о +6.0 +5.1 94 +5 +5 1012.7 1010.6
03 15.10 штиль 0
{1}
н/о н/о +4.6 +3.7 94 +3 +3 1012.6 1010.4
05 15.10 Ю 1
{1}
н/о н/о +4.2 +3.8 97 +3 +3 1012.9 1010.7
04 15.10 штиль 0 н/о н/о +4.1 +3.5 96 +3 +3 1012.6 1010.4
06 15.10 Ю 1
{2}
н/о н/о +4.3 +3.9 97 +3 +3 1013.2 1011.0 +3.8 +10.7
07 15.10 штиль 0
{1}
н/о н/о +4.6 +4.2 97 +3 +3 1013.6 1011.4
08 15.10 Ю 1
{1}
н/о н/о +5.5 +5.1 97 +4 +4 1013.7 1011.5
09 15.10 штиль 0
{1}
н/о н/о +6.7 +6.1 96 +6 +6 1013.6 1011.5
11 15.10 штиль 0
{3}
н/о н/о +7.0 +5.5 90 +6 +6 1014.1 1012.0
10 15.10 Ю 1
{4}
н/о н/о +7.4 +6.0 91 +6 +6 1013.9 1011.8
12 15.10 З 3
{4}
н/о н/о +7.3 +5.3 87 +4 +4 1013.7 1011.6
13 15.10 штиль 0
{4}
н/о н/о +7.0 +5.6 91 +6 +6 1014.3 1012.2
14 15.10 СВ 1
{3}
н/о н/о +7.6 +5.8 88 +7 +7 1014.1 1012.0
15 15.10 Ю 1
{4}
н/о н/о +7.5 +5.7 88 +7 +7 1014.3 1012.2
17 15.10 СВ 1
{4}
н/о н/о +6.2 +5.3 94 +5 +5 1014.2 1012.1
16 15.10 ЮВ 1
{1}
н/о н/о +7.2 +6.0 92 +6 +6 1014.2 1012.1
18 15.10 ЮВ 1
{5}
н/о н/о +5.3 +4.6 95 +4 +4 1014.8 1012.6 +4.3 +7.7
19 15.10 штиль 0
{2}
н/о н/о +4.6 +4.0 96 +3 +3 1015.6 1013.4
20 15.10 СВ 1
{2}
н/о н/о +4.2 +3.6 96 +3 +3 1015.6 1013.4
21 15.10 ЮВ 1
{3}
н/о н/о +3.9 +3.3 96 +2 +2 1015.9 1013.7
23 15.10 СВ 1
{3}
н/о н/о +3.7 +3.3 97 +2 +2 1016.8 1014.6
22 15.10 С 1
{2}
н/о н/о +3.5 +2.9 96 +2 +2 1016.6 1014.4
00 16.10 Ю 1
{3}
н/о н/о +4.0 +3.4 96 +2 +2 1016.9 1014.7
01 16.10 С 1
{2}
н/о н/о +3.1 +2.4 95 +1 +1 1016.8 1014.6
02 16.10 Ю 1
{2}
н/о н/о +3.1 +2.5 96 +1 +1 1016.7 1014.5
03 16.10 ЮВ 1
{2}
н/о н/о +3.5 +2.9 96 +2 +2 1016.7 1014.5
05 16.10 Ю 1
{2}
н/о н/о +4.0 +3.4 96 +2 +2 1016.4 1014.2
04 16.10 С 1
{4}
н/о н/о +4.0 +3.4 96 +2 +2 1016.5 1014.3
06 16.10 СВ 2
{5}
н/о н/о +5.3 +3.6 89 +3 +3 1016.6 1014.4 +2.9 +5.4
07 16.10 Ю 6
{11}
н/о н/о +10.7 -1.0 44 +8 +8 1016.0 1013.9
08 16.10 Ю 6
{12}
н/о н/о +11.3 -1.8 40 +9 +9 1015.7 1013.6
09 16.10 ЮВ 6
{12}
н/о н/о +12.7 -1.9 36 +11 +11 1015.1 1013.0
10 16.10 ЮВ 4
{10}
н/о н/о +13.2 -1.9 35 +12 +12 1014.0 1011.9

 

Местоположение метеостанции Tafjord (Норвегия): широта 62.23 долгота 7.42 высота над уровнем моря 11 м.

В архиве по умолчанию представлена погода в Tafjord за последнюю неделю. Архивные данные за месяц целиком и за предыдущие месяцы, начиная с января 2011 года, Вы можете получить, выбрав интересующий диапазон дат из раскрывающегося списка и нажав кнопку "Ввод!".


*Определитесь, кто Вы:
робот инопланетянин человек

Внимание! Время в таблицах - всемирное. Для получения местного времени необходимо прибавить поправку, которая в Tafjord равна 1 ч.

Смотрите также архив погоды в соседних городах и на ближайших метеорологических станциях:

Погода в Grotli III (Норвегия) (26 км)
Погода в Mannen (Норвегия) (31 км)
Погода в Marstein (Норвегия) (33 км)
Погода в Bjorli (Норвегия) (41 км)
Погода в Lebergsfjellet (Норвегия) (43 км)
Погода в Brata (Норвегия) (44 км)
Погода в Stryn-Kroken (Норвегия) (57 км)
Погода в Rekdal (Норвегия) (58 км)
Погода в Molde Lufthavn (Норвегия) (58 км)
Погода в Alesund IV (Норвегия) (68 км)

Пояснения к столбцам:

Ветер - указаны скорость ветра в м/с - средняя за 10 мин, порывы в срок и между сроками (в фигурных скобках) и направление, откуда дует ветер: С - северный, СВ - северо-восточный, В - восточный, ЮВ - юго-восточный, Ю - южный, ЮЗ - юго-западный, З - западный, СЗ - северо-западный.
Видимость - горизонтальная дальность видимости в метрах или километрах. При видимости от 1 до 10 км при отсутствии осадков обычно наблюдается дымка, при ухудшении видимости до 1 км и менее - туман. В сухую погоду видимость может ухудшаться дымом, пылью или мглою.
Явления - указаны атмосферные явления, наблюдавшиеся в срок или в последний час перед сроком; фигурными скобками обозначены явления, наблюдавшиеся между сроками (за 1-3 часа до срока); квадратными скобками обозначены град или гололедные отложения с указанием их диаметра в мм.
Облачность - указаны через наклонную черту общая и нижняя облачность в баллах и высота нижней границы облаков в метрах; квадратными скобками обозначены формы облаков: Ci - перистые, Cs - перисто-слоистые, Cc - перисто-кучевые, Ac - высококучевые, As - высокослоистые, Sc - слоисто-кучевые, Ns - слоисто-дождевые, Cu - кучевые, Cb - кучево-дождевые. Подробнее классификацию облаков см. в Атласе облаков (PDF).
T - Температура воздуха - температура, измеренная на высоте 2 м над землей.
Td - Температура точки росы - температура, при понижении до которой содержащийся в воздухе водяной пар достигнет насыщения.
f - Относительная влажность воздуха - влажноcть воздуха, измеренная на высоте 2 м над землей.
Te - Эффективная температура - температура, которую ощущает одетый по сезону человек в тени. Характеристика душности погоды. При расчете учитывается влияние влажности воздуха и скорости ветра на теплоощущения человека.
Tes - Эффективная температура на солнце - температура, которую ощущает человек, с поправкой на солнечный нагрев. Характеристика знойности погоды. Зависит от высоты солнца над горизонтом, облачности и скорости ветра. Ночью, в пасмурную погоду, а также при ветре 12 м/с и более поправка равна нулю.
P - Атмосферное давление - приведенное к уровню моря атмосферное давление.
Po - Атмосферное давление - измеренное на уровне метеостанции атмосферное давление.
Tmin - Минимальная температура - минимум температуры воздуха на высоте 2 м над землей.
Tmax - Максимальная температура - максимум температуры воздуха на высоте 2 м над землей.
R - Количество осадков - Количество выпавших осадков за период времени, мм. При наведении курсора мыши на число - период времени, за который выпало указанное количество осадков.
R24 - Количество осадков - Количество выпавших осадков за 24 часа, мм.
S - Снежный покров - Высота снежного покрова, см. При наведении курсора мыши на число - состояние снежного покрова и степень покрытия местности в баллах.